Вернуться в каталог

STARLINK-35176

АктивенСвязьSSO
NORAD 65662·PAYLOAD·🇺🇸 United States

Запущен Sep 19, 2025 с Vandenberg Space Force Base

Loading…

Ближайшие Пролёты (ближайшие 24 часа)

TLE

СвежийSource: CelesTrak SupGP

Эпоха: Sep 14, 2026, 23:14 UTC

1 65662C 25211L   26257.96854167  .00050458  00000+0  15670-2 0  2573
2 65662  97.2837 298.3486 0001079  86.8606 150.6345 15.33401410    11

Отслеживайте STARLINK-35176 в реальном времени с AllMySat

Download on the App Store